ATLAS CENTAUR 2 DEB, 2886

Orbit data source: Space-Track

ATLAS CENTAUR 2 DEB, 2886 is space debris in LEO originally from a launch on Wed, 27 Nov 1963 UTC launched from the Air Force Eastern Test Range (AFETR). Debris objects in space refer to the collection of defunct objects orbiting the Earth. Examples of debris include non-operational satellites, rocket bodies, and fragments generated from explosions, collisions, or faulty payload assembly.

Loading next visibility...
Identifier
2886, 1963-047K
Orbit
LEO
Country
Flag of USUS
Related business
Manufacturer
Unknown
Mission
Spacecraft
Bus & Motor
Unknown
Mass
Unknown
Launch date (UTC)
1963-11-27 (62 years ago)
Launch vehicle
Unknown
Launch site
Air Force Eastern Test Range (AFETR)
Object type
Payload
Rocket body
Debris
Shape & HBR
Unknown shape, 0.2 m
Radar Cross Section
Small (<0.1 m²)

Expand to show TLE details & history
Last TLE update: 11 hours ago

TLE from 11 hours ago
0 ATLAS CENTAUR 2 DEB
1 02886U 63047K   26104.16001456  .00000109  00000-0  36589-4 0  9995
2 02886  29.8687 141.3009 0643307 101.1437 266.2102 13.29977039867688
Epoch: 2026-04-14T03:50Z
TLE epoch observation values (Epoch: 2026-04-14T03:50:25.257Z)
Latitude
-0.00005°
Longitude
-118.64467°
Altitude
1,208.08 km
Speed
7.222 km/s
True Right ascension
09h 25m 12s
True Declination
0° 00' 00"
Sunlit
Object was in daylight at epoch
Visualization orbit readout
Latitude
Unknown
Longitude
Unknown
Altitude
Unknown
Speed
Unknown
Apparent Right ascension
Unknown
Apparent Declination
Unknown
Sunlit
N/A
Visualization observer readout
Local Sidereal Time
21:13:15
Azimuth
Unknown
Elevation
Unknown
Doppler factor
Unknown
Orbital elements
Apogee altitude
1,634.88 km
Perigee altitude
666.228 km
Semi-major axis
7,528.691 km
Eccentricity
0.06433
Inclination
29.8687°
RAAN
141.3009°
Arg. of periapsis
101.1437°
True anomaly
258.91322°
Mean anomaly
266.2102°
Eccentric anomaly
262.55539°
Mean motion
3.32249 °/min
Orbital period
108.35 mins
BSTAR
0.000036589
Loading maneuver chart data...
Computing Atmospheric mass density...

Documentation

Showing up to 5 results
|